Regional Weather Roundup
Issued by NWS Austin/San Antonio, TX

Home | Current Version | Previous Version | Text Only | Print | Product List | Glossary On
Versions: 1 2 3 4 5 6 7 8 9 10 11 12 13 14 15 16 17 18 19 20 21 22 23 24 25 26 27 28 29 30 31 32 33 34 35 36 37 38 39 40 41 42 43 44 45 46 47 48 49 50
000
ASUS44 KEWX 170710
RWREWX
SOUTH TEXAS REGIONAL WEATHER ROUNDUP
NATIONAL WEATHER SERVICE AUSTIN/SAN ANTONIO TX
200 AM CDT THU AUG 17 2017

NOTE: "FAIR" INDICATED FEW OR NO CLOUDS BELOW 12,000 FEET WITH NO
SIGNIFICANT WEATHER AND/OR OBSTRUCTIONS TO VISIBILITY.

* - THESE STATIONS ARE NOT NWS OR FAA STATIONS...AND ARE NOT SUBJECT
    TO NWS AND FAA QUALITY CONTROL.

TXZ171-172-183>190-170800-
TEXAS HILL COUNTRY AND EDWARDS PLATEAU

CITY           SKY/WX    TMP DP  RH WIND       PRES   REMARKS
JUNCTION       PTCLDY    82  74  76 S9        30.01R
*LLANO         CLOUDY    82  73  74 CALM      30.02R
BURNET         NOT AVBL
*HORSESHOE BAY CLOUDY    81  73  76 S7        29.98S
*KERRVILLE     CLOUDY    79  75  88 SE12      30.02R
*FREDERICKSBRG CLOUDY    79  70  74 S9        30.02S
*ROCKSPRINGS   NOT AVBL
*BOERNE STAGE  CLOUDY    77  72  83 S13G18    30.03R
*CASTROVILLE   CLOUDY    81  73  75 SE7       30.00R
HONDO          PTCLDY    82  75  79 SE9       29.98R
*UVALDE        DRZL/FOG  82  74  76 CALM      29.97R VSB 1/4
DEL RIO        CLOUDY    82  70  66 CALM      29.92R
LAUGHLIN AFB   CLOUDY    80  75  84 E6        29.94R
CARRIZO SPRGS  CLEAR     86  72  62 S15G23    29.92R HX  92
*EAGLE PASS    NOT AVBL
$$

TXZ173-191>194-202-209-217>225-228-170800-
CENTRAL AND SOUTH CENTRAL TEXAS

CITY           SKY/WX    TMP DP  RH WIND       PRES   REMARKS
GEORGETOWN     CLOUDY    82  75  78 S15       29.99R
AUSTIN/BERGSTM MOCLDY    82  76  81 S9        29.97S
AUSTIN/MABRY   CLOUDY    82  75  79 VRB7      29.98F
*AUSTIN/EXEC   CLOUDY    81  75  83 S8        29.98S
*LAGO VISTA    CLOUDY    81  74  81 S10G18    30.00S
SAN MARCOS     NOT AVBL
NEW BRAUNFELS  MOCLDY    81  76  84 S13       29.98S
RANDOLPH AFB   MOCLDY    79  79 100 S9        29.99S
PT SAN ANTONIO PTCLDY    81  75  83 SE12      29.97R
SAN ANTONIO    MOCLDY    81  74  79 S14       30.00R
STINSON FIELD  MOCLDY    82  75  79 SE8       29.96S
*LA GRANGE     CLOUDY    83  80  90 S6        29.97S HX  94
*GIDDINGS      PTCLDY    81  76  84 S9        29.99S
*GONZALES      CLOUDY    83  80  91 S9        29.98S HX  94
$$

TXZ163>164-176>182-195>201-210>213-226-227-235-170800-
SOUTHEAST TEXAS

CITY           SKY/WX    TMP DP  RH WIND       PRES   REMARKS
COLLEGE STN    CLOUDY    82  78  88 S9        29.97F HX  91
*BRYAN         CLOUDY    81  78  89 S8G16     29.99S
*CALDWELL      NOT AVBL
*CROCKETT      PTCLDY    81  75  83 S3        30.01S
*BRENHAM       MOCLDY    82  78  89 S8        29.99S HX  91
HUNTSVILLE     PTCLDY    83  76  79 S8        29.99S HX  91
CONROE         CLOUDY    82  77  84 S7        29.99S HX  90
HOUSTON BUSH   PTCLDY    84  78  82 S9        29.99R HX  95
HOUSTON HOBBY  PTCLDY    85  78  80 S8        29.99S HX  96
*HOUSTON SW AP PTCLDY    79  77  94 CALM      30.01R
PEARLAND       PTCLDY    86  78  77 S9        30.00S HX  98
HOUSTON HOOKS  MOCLDY    84  78  82 S8        29.99R HX  95
ELLINGTON FLD  NOT AVBL
SUGAR LAND     CLOUDY    83  79  88 S8        29.99R HX  94
*HOUSTON EXEC  PTCLDY    81  79  94 S7        30.00S FOG
*CLEVELAND MUN PTCLDY    79  77  94 CALM      30.00S
*WHARTON       CLEAR     81  76  86 S6        30.00R
*COLUMBUS      CLOUDY    81  78  91 S5        30.00R
*EAGLE LAKE    MOSUNNY   80  79  97 S5        29.99S
$$

TXZ214>216-236>238-170800-
THE UPPER TEXAS COAST

CITY           SKY/WX    TMP DP  RH WIND       PRES   REMARKS
*ORANGE        CLOUDY    85  80  86 S10       30.02S HX  98
PORT ARTHUR    CLOUDY    83  78  85 S10       29.99S HX  93
GALVESTON      CLOUDY    86  80  82 S20G25    30.01R HX 101
ANGLETON       MOCLDY    84  80  88 S12       30.00R HX  97
*BAY CITY      PTCLDY    83  79  87 S10       29.99R HX  95
PALACIOS       MOCLDY    84  78  82 S18G26    29.99R HX  95
$$

TXZ229>234-239>247-170800-
TEXAS COASTAL BEND AND RIO GRANDE PLAINS

CITY           SKY/WX    TMP DP  RH WIND       PRES   REMARKS
VICTORIA       CLOUDY    83  78  85 S12       29.99R HX  93
*BEEVILLE      MOCLDY    83  79  86 S15       29.98S HX  94
ROCKPORT       PTCLDY    84  78  82 S13G23    29.97S HX  95
*PORT ARANSAS  CLOUDY    83  79  86 S10G18    29.98S HX  95
*PORT LAVACA   PTCLDY    82  77  83 S8        29.99R HX  91
*INGLESIDE     MOCLDY    85  81  85 MISG      29.97S HX 101
CORPUS CHRISTI PTCLDY    83  79  88 S17G24    29.97S HX  94
CORPUS NAS     PTCLDY    85  81  88 S18G26    29.97S HX 100
*ROBSTOWN      CLOUDY    85  78  80 S15G21    29.97S HX  97
ALICE          CLOUDY    83  77  82 S10       29.96F HX  92
KINGSVILLE NAS CLEAR     84  80  88 S15       29.96S HX  97
COTULLA        CLEAR     85  72  65 SE13      29.95R HX  91
*FAITH RANCH   CLEAR     86  72  62 SE15G24   29.93R HX  92
LAREDO         CLEAR     85  72  65 SE16G25   29.93F HX  91
$$

TXZ248>255-170800-
DEEP SOUTH TEXAS

CITY           SKY/WX    TMP DP  RH WIND       PRES   REMARKS
BROWNSVILLE    CLEAR     82  79  90 S13       29.98S HX  92
PORT ISABEL    CLEAR     84  79  85 S13       29.98R HX  96
*SOUTH PADRE   NOT AVBL
HARLINGEN      PTCLDY    83  79  88 S15       29.97R HX  94
*HEBBRONVILLE  PTCLDY    81  73  77 S10       29.98S
MCALLEN        PTCLDY    85  77  77 SE18G26   29.96F HX  95
*WESLACO       PTCLDY    83  76  79 S13       29.96S HX  92
FALFURRIAS     PTCLDY    84  77  79 S10       29.96S HX  93
EDINBURG       CLEAR     85  75  72 S14G21    29.96F HX  94
*ZAPATA        CLEAR     84  72  67 SE9G20    29.94S HX  90
$$

TXZ213>215-236>238-242>244-246-247-251-254-255-170800-
CMAN STATIONS

STATION/POSITION TIME  TEMP    WIND        PRES    WAVE
                       AIR SEA DIR/SP/G            HT/PER
                 (UTC) (F)     (DEG/KT/KT) (MB)    (FT/S)
SABINE PASS      0648      89  180/ 11/ 17 1017.5
SEA RIM ST PARK  0600   86     190/ 15/ 20 1016.5
NORTH JETTY/GLS  0642      87  160/ 16/ 20 1015.5
EAGLE POINT      0648      87  200/ 17/ 21 1015.8
MORGANS POINT    0648      87  180/  8/ 12 1015.7
MISSION/ARANSAS  0600          160/ 20     1015.0
PORT O`CONNOR    0648          170/ 21/ 24 1014.8
PORT ARANSAS     0600   84 87  160/ 14/ 16 1015.0
MALAQUITE BEACH  0648      86  160/ 16/ 20 1014.2
BAFFIN BAY       0648      85              1014.6
PORT ISABEL      0648      84              1015.3
$$



USA.gov is the U.S. government's official web portal to all federal, state and local government web resources and services.